Location: Goudex
(43.3760°N, 0.9543°E)
Time: 19:19:34
(UTC+00:00)

Okean O Rocket - Pass Details

Date: 20 November 2019
Orbit: 622 x 645 km, 98.2° (Epoch: 10 December)

Event Time Altitude Azimuth Distance (km) Brightness Sun altitude
Rises 05:08:56 0° 19° (NNE) 2,912 5.1 -19.2°
Reaches altitude 10° 05:11:12 10° 25° (NNE) 2,001 4.3 -18.7°
Maximum altitude 05:15:24 47° 99° (E) 826 2.6 -18.0°
Drops below altitude 10° 05:19:35 10° 174° (S) 1,990 4.4 -17.3°
Sets 05:21:50 0° 180° (S) 2,895 5.1 -16.9°
